STARLINK-32396, 61633

Orbit data source: Space-Track

STARLINK-32396, 61633 is a payload satellite owned by SpaceX/Seattle (US) in LEO that was launched on Wed, 23 Oct 2024 UTC via an FALCON 9 launch vehicle from the Air Force Eastern Test Range (AFETR). Payload-class satellites include a variety of spacecraft equipped with specific instruments for various scientific and technological missions. These include communications satellites like Starlink; space stations such as the ISS; scientific satellites like the Hubble; Earth observation satellites from companies like Planet Labs, Umbra, and HawkEye 360; GPS; miniature CubeSats for education and research; and military/defense satellites.

Loading next visibility...
Identifier
61633, 2024-191N
Orbit
LEO
Country
Flag of USUS
Related business
Manufacturer
SpaceX/Seattle
Mission
Operational Commercial Communications
Bus & Motor
STARLINK V2M, Unknown motor
Mass
730 kg wet, ~700 kg dry
Launch date (UTC)
2024-10-23 (2 years ago)
Launch vehicle
FALCON 9
Launch site
Air Force Eastern Test Range (AFETR)
Object type
Payload
Rocket body
Debris
Shape & HBR
Box + 2 Pan, 17.7 m
Radar Cross Section
33.884 m², Large (>1 m²)

Expand to show TLE details & history
Last TLE update: 16 hours ago

TLE from 16 hours ago
0 STARLINK-32396
1 61633U 24191N   26263.01073735  .00000870  00000-0  41129-4 0  9997
2 61633  42.9993 140.6873 0001095 269.9712  90.1014 15.27578060107214
Epoch: 2026-09-20T00:15Z
TLE epoch observation values (Epoch: 2026-09-20T00:15:27.707Z)
Latitude
-0.00001°
Longitude
137.91079°
Altitude
482.832 km
Speed
7.626 km/s
True Right ascension
09h 22m 44s
True Declination
0° 00' 00"
Sunlit
Object was in daylight at epoch
Visualization orbit readout
Latitude
Unknown
Longitude
Unknown
Altitude
Unknown
Speed
Unknown
Apparent Right ascension
Unknown
Apparent Declination
Unknown
Sunlit
N/A
Visualization observer readout
Local Sidereal Time
09:09:57
Azimuth
Unknown
Elevation
Unknown
Doppler factor
Unknown
Orbital elements
Apogee altitude
485.752 km
Perigee altitude
484.249 km
Semi-major axis
6,863.137 km
Eccentricity
0.00011
Inclination
42.9993°
RAAN
140.6873°
Arg. of periapsis
269.9712°
True anomaly
90.11395°
Mean anomaly
90.1014°
Eccentric anomaly
90.10767°
Mean motion
3.81733 °/min
Orbital period
94.31 mins
BSTAR
0.000041129
Loading maneuver chart data...
Computing Atmospheric mass density...
Loading historical data...
Loading historical data...
Loading historical data...
Loading historical data...
Loading historical data...
Loading historical data...
Loading historical data...

Documentation

Showing up to 5 results
|